Other Public Products
Issued by NWS Charleston, SC

Current Version | Previous Version | Graphics & Text | Print | Product List | Glossary On
Versions: 1 2 3 4 5 6 7 8 9 10 11 12 13 14 15 16 17 18 19 20 21 22 23 24 25 26 27 28 29 30 31 32 33 34 35 36 37 38 39 40 41 42 43 44 45 46 47 48 49 50
108 FPUS82 KCHS 031927 OPUCHS TEST...KCHS/KSAV Gateway Observations...TEST National Weather Service Charleston SC 200 PM EST SAT DEC 03 2016 NOTE: "fair" indicates few or no clouds below 12,000 feet with no significant weather and/or obstructions to visibility. SCZ050-WAZ558-NCZ071-TXZ119-213-PAZ071-DCZ001-FLZ074-172-MI076- NYZ176-178-MAZ016-IL014-TNZ027-NJZ106-GAZ044-MD014-032000- ...Gateway Observations for Charleston International... CITY SKY/WX TMP DP RH WIND PRES REMARKS Chas Airport MOSUNNY 57 33 40 N6 30.22F Seattle CLOUDY 47 41 80 SW17G25 30.30R Charlotte PTSUNNY 53 31 42 N6 30.23F Dallas DFW LGT RAIN 50 47 89 NE8 30.02F FOG Dallas Love LGT RAIN 51 48 89 E10 30.02F FOG Philladelphia PTSUNNY 51 28 41 NW17 30.08F Wash National PTSUNNY 50 29 44 W17G26 30.19F Baltimore PTSUNNY 50 30 46 NW16G23 30.15F Miami PTSUNNY 79 65 62 NE13 30.04 Detroit CLOUDY 38 29 70 W9 30.30R WCI 31 Newark MOSUNNY 48 26 42 NW21G28 30.03F Laguardia PTSUNNY 49 27 42 NW20 30.02F J F K PTSUNNY 49 24 37 NW20G32 30.03F Boston Logan CLOUDY 44 25 47 NW21G31 29.88S Ft. Lauderdale PTSUNNY 77 64 64 NE14 30.04F Chicago O`Hare CLOUDY 33 23 66 W8 30.34R WCI 26 Chicago Midway CLOUDY 34 22 61 W8 30.35 WCI 27 Houston Bush CLOUDY 54 52 93 NE10 29.89 Houston Hobby CLOUDY 57 54 89 NE14 29.87F Nashville CLOUDY 44 30 57 N3 30.32F Atlanta PTSUNNY 57 28 33 NE5 30.20F $$ GAZ044-118-TXZ119-213-NCZ071-DCZ001-MDZ014-506-PAZ021-071-NJZ106- NYZ176-178-MAZ106-OHZ011-021-055-MIZ076-KYZ091-ILZ014-INZ047- MNZ060-032000- ...Gateway Observations for Savannah International... CITY SKY/WX TMP DP RH WIND PRES REMARKS Savannah Arpt PTSUNNY 63 32 31 SE7 30.21S Atlanta PTSUNNY 57 28 33 NE5 30.20F Charlotte PTSUNNY 53 31 42 N6 30.23F Dallas DFW LGT RAIN 50 47 89 NE8 30.02F FOG Houston Bush CLOUDY 54 52 93 NE10 29.89 Wash National PTSUNNY 50 29 44 W17G26 30.19F Wash Dulles MOSUNNY 46 27 47 NW18G25 30.19F Baltimore PTSUNNY 50 30 46 NW16G23 30.15F Philadelphia PTSUNNY 51 28 41 NW17 30.08F Newark MOSUNNY 48 26 42 NW21G28 30.03F Laguardia PTSUNNY 49 27 42 NW20 30.02F J F K PTSUNNY 49 24 37 NW20G32 30.03F Boston CLOUDY 44 25 47 NW21G31 29.88S Pittsburg CLOUDY 38 30 73 W8 30.24S WCI 32 Akron CLOUDY 38 29 70 W7 30.26S WCI 33 Cleveland CLOUDY 40 30 67 W9 30.30R WCI 34 Cincinnati CLOUDY 41 30 65 SW8 30.33S Columbus CLOUDY 39 26 58 W5 30.32S WCI 36 Detroit CLOUDY 38 29 70 W9 30.30R WCI 31 Chicago O`Hare CLOUDY 33 23 66 W8 30.34R WCI 26 Minneapolis MOSUNNY 30 19 63 S6 30.25F WCI 24 Indianapolis CLOUDY 39 28 64 W8 30.34S WCI 33 $$

USA.gov is the U.S. government's official web portal to all federal, state and local government web resources and services.